Year,Month,Day,Hour,Minute,Value (Times are PST for windspeed in km/hr)
2015,08,28,00,00,2.40
2015,08,28,00,01,3.90
2015,08,28,00,02,2.80
2015,08,28,00,03,3.40
2015,08,28,00,04,4.00
2015,08,28,00,05,6.20
2015,08,28,00,06,5.80
2015,08,28,00,07,4.10
2015,08,28,00,08,3.00
2015,08,28,00,09,5.50
2015,08,28,00,10,6.40
2015,08,28,00,11,4.80
2015,08,28,00,12,9.00
2015,08,28,00,13,6.90
2015,08,28,00,14,5.70
2015,08,28,00,15,5.50
2015,08,28,00,16,5.30
2015,08,28,00,17,5.40
2015,08,28,00,18,3.50
2015,08,28,00,19,3.40
2015,08,28,00,20,4.20
2015,08,28,00,21,3.60
2015,08,28,00,22,5.70
2015,08,28,00,23,4.90
2015,08,28,00,24,3.30
2015,08,28,00,25,5.50
2015,08,28,00,26,5.90
2015,08,28,00,27,2.80
2015,08,28,00,28,2.70
2015,08,28,00,29,5.80
2015,08,28,00,30,3.80
2015,08,28,00,31,2.30
2015,08,28,00,32,4.50
2015,08,28,00,33,4.80
2015,08,28,00,34,7.10
2015,08,28,00,35,6.60
2015,08,28,00,36,5.30
2015,08,28,00,37,6.70
2015,08,28,00,38,6.10
2015,08,28,00,39,7.50
2015,08,28,00,40,5.40
2015,08,28,00,41,4.80
2015,08,28,00,42,6.20
2015,08,28,00,43,8.00
2015,08,28,00,44,8.00
2015,08,28,00,45,7.80
2015,08,28,00,46,8.20
2015,08,28,00,47,6.80
2015,08,28,00,48,8.30
2015,08,28,00,49,11.00
2015,08,28,00,50,8.10
2015,08,28,00,51,9.00
2015,08,28,00,52,10.10
2015,08,28,00,53,9.60
2015,08,28,00,54,6.90
2015,08,28,00,55,10.10
2015,08,28,00,56,11.10
2015,08,28,00,57,10.70
2015,08,28,00,58,10.20
2015,08,28,00,59,9.80
2015,08,28,01,00,9.40
2015,08,28,01,01,9.00
2015,08,28,01,02,9.40
2015,08,28,01,03,12.30
2015,08,28,01,04,10.00
2015,08,28,01,05,7.40
2015,08,28,01,06,8.60
2015,08,28,01,07,5.30
2015,08,28,01,08,9.80
2015,08,28,01,09,8.60
2015,08,28,01,10,8.40
2015,08,28,01,11,7.70
2015,08,28,01,12,6.80
2015,08,28,01,13,6.40
2015,08,28,01,14,7.60
2015,08,28,01,15,6.20
2015,08,28,01,16,7.90
2015,08,28,01,17,6.10
2015,08,28,01,18,5.80
2015,08,28,01,19,8.40
2015,08,28,01,20,9.10
2015,08,28,01,21,8.60
2015,08,28,01,22,8.10
2015,08,28,01,23,7.10
2015,08,28,01,24,9.30
2015,08,28,01,25,9.10
2015,08,28,01,26,7.10
2015,08,28,01,27,6.20
2015,08,28,01,28,4.40
2015,08,28,01,29,5.20
2015,08,28,01,30,6.40
2015,08,28,01,31,2.60
2015,08,28,01,32,5.80
2015,08,28,01,33,6.40
2015,08,28,01,34,6.90
2015,08,28,01,35,8.40
2015,08,28,01,36,7.10
2015,08,28,01,37,6.30
2015,08,28,01,38,4.70
2015,08,28,01,39,7.40
2015,08,28,01,40,5.70
2015,08,28,01,41,6.90
2015,08,28,01,42,6.90
2015,08,28,01,43,8.30
2015,08,28,01,44,7.00
2015,08,28,01,45,4.20
2015,08,28,01,46,5.20
2015,08,28,01,47,6.40
2015,08,28,01,48,3.90
2015,08,28,01,49,3.40
2015,08,28,01,50,6.70
2015,08,28,01,51,5.00
2015,08,28,01,52,5.20
2015,08,28,01,53,7.60
2015,08,28,01,54,7.80
2015,08,28,01,55,7.90
2015,08,28,01,56,6.40
2015,08,28,01,57,5.90
2015,08,28,01,58,7.20
2015,08,28,01,59,6.60
2015,08,28,02,00,5.00
2015,08,28,02,01,4.20
2015,08,28,02,02,6.00
2015,08,28,02,03,7.30
2015,08,28,02,04,7.60
2015,08,28,02,05,5.10
2015,08,28,02,06,6.50
2015,08,28,02,07,8.40
2015,08,28,02,08,7.70
2015,08,28,02,09,4.40
2015,08,28,02,10,5.00
2015,08,28,02,11,7.70
2015,08,28,02,12,8.60
2015,08,28,02,13,5.60
2015,08,28,02,14,6.50
2015,08,28,02,15,5.80
2015,08,28,02,16,10.80
2015,08,28,02,17,5.70
2015,08,28,02,18,8.10
2015,08,28,02,19,7.30
2015,08,28,02,20,4.90
2015,08,28,02,21,4.10
2015,08,28,02,22,5.00
2015,08,28,02,23,5.10
2015,08,28,02,24,3.30
2015,08,28,02,25,3.90
2015,08,28,02,26,5.20
2015,08,28,02,27,4.90
2015,08,28,02,28,3.30
2015,08,28,02,29,4.80
2015,08,28,02,30,4.70
2015,08,28,02,31,3.60
2015,08,28,02,32,7.70
2015,08,28,02,33,4.90
2015,08,28,02,34,4.90
2015,08,28,02,35,4.90
2015,08,28,02,36,7.10
2015,08,28,02,37,5.20
2015,08,28,02,38,6.20
2015,08,28,02,39,4.40
2015,08,28,02,40,5.20
2015,08,28,02,41,5.90
2015,08,28,02,42,6.90
2015,08,28,02,43,4.80
2015,08,28,02,44,7.00
2015,08,28,02,45,7.70
2015,08,28,02,46,8.40
2015,08,28,02,47,7.50
2015,08,28,02,48,8.10
2015,08,28,02,49,8.70
2015,08,28,02,50,6.70
2015,08,28,02,51,10.80
2015,08,28,02,52,5.50
2015,08,28,02,53,5.00
2015,08,28,02,54,7.00
2015,08,28,02,55,9.00
2015,08,28,02,56,7.40
2015,08,28,02,57,7.40
2015,08,28,02,58,8.70
2015,08,28,02,59,9.00
2015,08,28,03,00,4.20
2015,08,28,03,01,5.90
2015,08,28,03,02,8.10
2015,08,28,03,03,8.70
2015,08,28,03,04,7.80
2015,08,28,03,05,6.30
2015,08,28,03,06,5.90
2015,08,28,03,07,4.60
2015,08,28,03,08,4.40
2015,08,28,03,09,8.90
2015,08,28,03,10,7.10
2015,08,28,03,11,7.70
2015,08,28,03,12,4.80
2015,08,28,03,13,6.10
2015,08,28,03,14,8.70
2015,08,28,03,15,8.10
2015,08,28,03,16,9.30
2015,08,28,03,17,9.80
2015,08,28,03,18,8.10
2015,08,28,03,19,7.90
2015,08,28,03,20,7.30
2015,08,28,03,21,9.90
2015,08,28,03,22,9.70
2015,08,28,03,23,9.70
2015,08,28,03,24,11.20
2015,08,28,03,25,7.50
2015,08,28,03,26,9.70
2015,08,28,03,27,7.50
2015,08,28,03,28,7.20
2015,08,28,03,29,8.30
2015,08,28,03,30,9.30
2015,08,28,03,31,6.60
2015,08,28,03,32,7.40
2015,08,28,03,33,10.60
2015,08,28,03,34,10.20
2015,08,28,03,35,11.70
2015,08,28,03,36,11.90
2015,08,28,03,37,7.60
2015,08,28,03,38,12.30
2015,08,28,03,39,11.80
2015,08,28,03,40,13.60
2015,08,28,03,41,8.90
2015,08,28,03,42,11.70
2015,08,28,03,43,15.00
2015,08,28,03,44,11.30
2015,08,28,03,45,10.20
2015,08,28,03,46,11.50
2015,08,28,03,47,9.50
2015,08,28,03,48,9.90
2015,08,28,03,49,9.10
2015,08,28,03,50,11.70
2015,08,28,03,51,12.20
2015,08,28,03,52,8.30
2015,08,28,03,53,9.20
2015,08,28,03,54,7.30
2015,08,28,03,55,10.30
2015,08,28,03,56,11.40
2015,08,28,03,57,9.90
2015,08,28,03,58,10.70
2015,08,28,03,59,9.60
2015,08,28,04,00,13.80
2015,08,28,04,01,10.00
2015,08,28,04,02,10.70
2015,08,28,04,03,10.90
2015,08,28,04,04,7.90
2015,08,28,04,05,10.70
2015,08,28,04,06,12.70
2015,08,28,04,07,9.10
2015,08,28,04,08,10.50
2015,08,28,04,09,11.90
2015,08,28,04,10,9.90
2015,08,28,04,11,10.10
2015,08,28,04,12,14.30
2015,08,28,04,13,9.00
2015,08,28,04,14,15.60
2015,08,28,04,15,13.60
2015,08,28,04,16,14.10
2015,08,28,04,17,13.50
2015,08,28,04,18,8.90
2015,08,28,04,19,12.00
2015,08,28,04,20,15.10
2015,08,28,04,21,16.60
2015,08,28,04,22,10.00
2015,08,28,04,23,11.60
2015,08,28,04,24,9.20
2015,08,28,04,25,9.70
2015,08,28,04,26,12.00
2015,08,28,04,27,13.20
2015,08,28,04,28,12.90
2015,08,28,04,29,12.20
2015,08,28,04,30,11.20
2015,08,28,04,31,8.40
2015,08,28,04,32,11.20
2015,08,28,04,33,7.60
2015,08,28,04,34,9.20
2015,08,28,04,35,13.80
2015,08,28,04,36,10.10
2015,08,28,04,37,11.20
2015,08,28,04,38,12.40
2015,08,28,04,39,9.90
2015,08,28,04,40,10.30
2015,08,28,04,41,11.20
2015,08,28,04,42,10.60
2015,08,28,04,43,11.70
2015,08,28,04,44,10.60
2015,08,28,04,45,12.10
2015,08,28,04,46,13.00
2015,08,28,04,47,16.50
2015,08,28,04,48,13.90
2015,08,28,04,49,10.00
2015,08,28,04,50,15.60
2015,08,28,04,51,16.30
2015,08,28,04,52,13.50
2015,08,28,04,53,13.00
2015,08,28,04,54,14.20
2015,08,28,04,55,14.20
2015,08,28,04,56,10.80
2015,08,28,04,57,11.10
2015,08,28,04,58,8.40
2015,08,28,04,59,11.60
2015,08,28,05,00,12.40
2015,08,28,05,01,11.50
2015,08,28,05,02,11.00
2015,08,28,05,03,13.00
2015,08,28,05,04,11.20
2015,08,28,05,05,10.30
2015,08,28,05,06,12.80
2015,08,28,05,07,13.00
2015,08,28,05,08,11.50
2015,08,28,05,09,10.20
2015,08,28,05,10,15.90
2015,08,28,05,11,9.20
2015,08,28,05,12,11.10
2015,08,28,05,13,11.70
2015,08,28,05,14,13.80
2015,08,28,05,15,12.40
2015,08,28,05,16,9.40
2015,08,28,05,17,8.50
2015,08,28,05,18,12.00
2015,08,28,05,19,11.50
2015,08,28,05,20,11.40
2015,08,28,05,21,9.70
2015,08,28,05,22,13.30
2015,08,28,05,23,8.00
2015,08,28,05,24,11.30
2015,08,28,05,25,11.70
2015,08,28,05,26,10.20
2015,08,28,05,27,11.00
2015,08,28,05,28,12.60
2015,08,28,05,29,13.10
2015,08,28,05,30,13.70
2015,08,28,05,31,11.50
2015,08,28,05,32,11.60
2015,08,28,05,33,10.80
2015,08,28,05,34,9.30
2015,08,28,05,35,10.20
2015,08,28,05,36,13.40
2015,08,28,05,37,8.00
2015,08,28,05,38,7.10
2015,08,28,05,39,9.20
2015,08,28,05,40,8.90
2015,08,28,05,41,10.50
2015,08,28,05,42,8.80
2015,08,28,05,43,13.00
2015,08,28,05,44,13.60
2015,08,28,05,45,13.00
2015,08,28,05,46,11.10
2015,08,28,05,47,11.00
2015,08,28,05,48,6.80
2015,08,28,05,49,9.70
2015,08,28,05,50,9.60
2015,08,28,05,51,9.50
2015,08,28,05,52,8.30
2015,08,28,05,53,8.80
2015,08,28,05,54,10.30
2015,08,28,05,55,10.80
2015,08,28,05,56,12.70
2015,08,28,05,57,11.30
2015,08,28,05,58,11.10
2015,08,28,05,59,12.10
2015,08,28,06,00,9.70
2015,08,28,06,01,7.50
2015,08,28,06,02,8.60
2015,08,28,06,03,11.60
2015,08,28,06,04,13.60
2015,08,28,06,05,9.80
2015,08,28,06,06,10.30
2015,08,28,06,07,12.80
2015,08,28,06,08,10.00
2015,08,28,06,09,8.90
2015,08,28,06,10,11.30
2015,08,28,06,11,12.90
2015,08,28,06,12,18.70
2015,08,28,06,13,12.60
2015,08,28,06,14,11.90
2015,08,28,06,15,8.90
2015,08,28,06,16,9.90
2015,08,28,06,17,11.80
2015,08,28,06,18,17.00
2015,08,28,06,19,12.70
2015,08,28,06,20,8.70
2015,08,28,06,21,7.80
2015,08,28,06,22,12.90
2015,08,28,06,23,9.40
2015,08,28,06,24,10.70
2015,08,28,06,25,12.00
2015,08,28,06,26,12.20
2015,08,28,06,27,8.80
2015,08,28,06,28,10.70
2015,08,28,06,29,5.90
2015,08,28,06,30,7.80
2015,08,28,06,31,10.10
2015,08,28,06,32,8.70
2015,08,28,06,33,8.60
2015,08,28,06,34,7.20
2015,08,28,06,35,13.40
2015,08,28,06,36,10.80
2015,08,28,06,37,10.10
2015,08,28,06,38,9.40
2015,08,28,06,39,8.40
2015,08,28,06,40,10.10
2015,08,28,06,41,10.40
2015,08,28,06,42,9.10
2015,08,28,06,43,10.50
2015,08,28,06,44,16.20
2015,08,28,06,45,14.40
2015,08,28,06,46,12.70
2015,08,28,06,47,7.20
2015,08,28,06,48,9.00
2015,08,28,06,49,9.60
2015,08,28,06,50,10.80
2015,08,28,06,51,12.80
2015,08,28,06,52,14.60
2015,08,28,06,53,10.20
2015,08,28,06,54,8.80
2015,08,28,06,55,9.00
2015,08,28,06,56,8.90
2015,08,28,06,57,9.70
2015,08,28,06,58,9.40
2015,08,28,06,59,11.00
2015,08,28,07,00,9.30
2015,08,28,07,01,10.70
2015,08,28,07,02,8.60
2015,08,28,07,03,8.70
2015,08,28,07,04,6.70
2015,08,28,07,05,9.40
2015,08,28,07,06,10.00
2015,08,28,07,07,8.70
2015,08,28,07,08,10.90
2015,08,28,07,09,10.40
2015,08,28,07,10,10.00
2015,08,28,07,11,11.00
2015,08,28,07,12,9.30
2015,08,28,07,13,7.00
2015,08,28,07,14,10.60
2015,08,28,07,15,9.40
2015,08,28,07,16,7.70
2015,08,28,07,17,9.10
2015,08,28,07,18,7.60
2015,08,28,07,19,6.40
2015,08,28,07,20,11.10
2015,08,28,07,21,9.70
2015,08,28,07,22,9.00
2015,08,28,07,23,8.70
2015,08,28,07,24,10.60
2015,08,28,07,25,9.50
2015,08,28,07,26,8.20
2015,08,28,07,27,10.80
2015,08,28,07,28,11.40
2015,08,28,07,29,10.00
2015,08,28,07,30,12.40
2015,08,28,07,31,9.60
2015,08,28,07,32,10.60
2015,08,28,07,33,11.80
2015,08,28,07,34,7.40
2015,08,28,07,35,11.20
2015,08,28,07,36,10.20
2015,08,28,07,37,9.30
2015,08,28,07,38,11.70
2015,08,28,07,39,10.90
2015,08,28,07,40,9.40
2015,08,28,07,41,8.00
2015,08,28,07,42,8.40
2015,08,28,07,43,9.70
2015,08,28,07,44,10.10
2015,08,28,07,45,8.70
2015,08,28,07,46,8.10
2015,08,28,07,47,10.20
2015,08,28,07,48,11.00
2015,08,28,07,49,8.70
2015,08,28,07,50,10.30
2015,08,28,07,51,9.40
2015,08,28,07,52,11.30
2015,08,28,07,53,12.30
2015,08,28,07,54,10.30
2015,08,28,07,55,9.70
2015,08,28,07,56,10.30
2015,08,28,07,57,7.30
2015,08,28,07,58,9.30
2015,08,28,07,59,5.60
2015,08,28,08,00,7.60
2015,08,28,08,01,8.00
2015,08,28,08,02,9.70
2015,08,28,08,03,10.00
2015,08,28,08,04,8.80
2015,08,28,08,05,9.40
2015,08,28,08,06,9.00
2015,08,28,08,07,8.80
2015,08,28,08,08,8.60
2015,08,28,08,09,7.90
2015,08,28,08,10,8.20
2015,08,28,08,11,6.80
2015,08,28,08,12,9.60
2015,08,28,08,13,7.70
2015,08,28,08,14,9.10
2015,08,28,08,15,9.70
2015,08,28,08,16,9.80
2015,08,28,08,17,7.30
2015,08,28,08,18,6.20
2015,08,28,08,19,6.70
2015,08,28,08,20,9.10
2015,08,28,08,21,7.50
2015,08,28,08,22,8.60
2015,08,28,08,23,8.30
2015,08,28,08,24,9.00
2015,08,28,08,25,3.80
2015,08,28,08,26,5.30
2015,08,28,08,27,10.00
2015,08,28,08,28,10.40
2015,08,28,08,29,9.10
2015,08,28,08,30,11.20
2015,08,28,08,31,8.30
2015,08,28,08,32,5.70
2015,08,28,08,33,6.70
2015,08,28,08,34,7.10
2015,08,28,08,35,7.00
2015,08,28,08,36,7.40
2015,08,28,08,37,9.40
2015,08,28,08,38,9.10
2015,08,28,08,39,7.30
2015,08,28,08,40,9.40
2015,08,28,08,41,9.40
2015,08,28,08,42,6.10
2015,08,28,08,43,7.80
2015,08,28,08,44,6.10
2015,08,28,08,45,8.70
2015,08,28,08,46,9.70
2015,08,28,08,47,7.40
2015,08,28,08,48,9.70
2015,08,28,08,49,9.80
2015,08,28,08,50,8.50
2015,08,28,08,51,8.80
2015,08,28,08,52,8.30
2015,08,28,08,53,7.20
2015,08,28,08,54,7.30
2015,08,28,08,55,6.80
2015,08,28,08,56,10.20
2015,08,28,08,57,6.50
2015,08,28,08,58,6.30
2015,08,28,08,59,6.20
2015,08,28,09,00,8.30
2015,08,28,09,01,7.10
2015,08,28,09,02,6.00
2015,08,28,09,03,8.70
2015,08,28,09,04,7.60
2015,08,28,09,05,8.00
2015,08,28,09,06,9.70
2015,08,28,09,07,8.80
2015,08,28,09,08,8.10
2015,08,28,09,09,7.30
2015,08,28,09,10,7.10
2015,08,28,09,11,8.20
2015,08,28,09,12,8.70
2015,08,28,09,13,8.60
2015,08,28,09,14,5.70
2015,08,28,09,15,7.10
2015,08,28,09,16,4.70
2015,08,28,09,17,5.70
2015,08,28,09,18,1.80
2015,08,28,09,19,7.80
2015,08,28,09,20,9.30
2015,08,28,09,21,9.00
2015,08,28,09,22,6.20
2015,08,28,09,23,6.80
2015,08,28,09,24,10.00
2015,08,28,09,25,8.50
2015,08,28,09,26,7.10
2015,08,28,09,27,7.00
2015,08,28,09,28,6.70
2015,08,28,09,29,4.70
2015,08,28,09,30,7.10
2015,08,28,09,31,6.90
2015,08,28,09,32,3.70
2015,08,28,09,33,8.30
2015,08,28,09,34,6.70
2015,08,28,09,35,6.90
2015,08,28,09,36,6.20
2015,08,28,09,37,8.30
2015,08,28,09,38,10.00
2015,08,28,09,39,8.10
2015,08,28,09,40,6.40
2015,08,28,09,41,9.10
2015,08,28,09,42,7.70
2015,08,28,09,43,5.00
2015,08,28,09,44,6.90
2015,08,28,09,45,8.00
2015,08,28,09,46,7.10
2015,08,28,09,47,9.40
2015,08,28,09,48,8.30
2015,08,28,09,49,9.40
2015,08,28,09,50,7.40
2015,08,28,09,51,5.10
2015,08,28,09,52,4.60
2015,08,28,09,53,6.80
2015,08,28,09,54,6.90
2015,08,28,09,55,7.80
2015,08,28,09,56,6.10
2015,08,28,09,57,5.60
2015,08,28,09,58,7.70
2015,08,28,09,59,6.20
2015,08,28,10,00,8.50
2015,08,28,10,01,7.50
2015,08,28,10,02,9.80
2015,08,28,10,03,9.40
2015,08,28,10,04,8.90
2015,08,28,10,05,9.30
2015,08,28,10,06,8.60
2015,08,28,10,07,6.80
2015,08,28,10,08,7.70
2015,08,28,10,09,8.50
2015,08,28,10,10,8.30
2015,08,28,10,11,9.00
2015,08,28,10,12,9.00
2015,08,28,10,13,7.00
2015,08,28,10,14,9.30
2015,08,28,10,15,9.20
2015,08,28,10,16,9.40
2015,08,28,10,17,7.30
2015,08,28,10,18,8.40
2015,08,28,10,19,8.40
2015,08,28,10,20,9.00
2015,08,28,10,21,6.70
2015,08,28,10,22,7.70
2015,08,28,10,23,9.20
2015,08,28,10,24,8.20
2015,08,28,10,25,6.40
2015,08,28,10,26,7.40
2015,08,28,10,27,6.20
2015,08,28,10,28,5.90
2015,08,28,10,29,5.10
2015,08,28,10,30,7.90
2015,08,28,10,31,7.50
2015,08,28,10,32,9.30
2015,08,28,10,33,9.50
2015,08,28,10,34,8.10
2015,08,28,10,35,7.40
2015,08,28,10,36,6.00
2015,08,28,10,37,5.20
2015,08,28,10,38,7.40
2015,08,28,10,39,7.20
2015,08,28,10,40,7.40
2015,08,28,10,41,7.40
2015,08,28,10,42,8.20
2015,08,28,10,43,5.60
2015,08,28,10,44,9.00
2015,08,28,10,45,5.30
2015,08,28,10,46,8.00
2015,08,28,10,47,6.30
2015,08,28,10,48,9.00
2015,08,28,10,49,5.90
2015,08,28,10,50,6.40
2015,08,28,10,51,8.50
2015,08,28,10,52,5.90
2015,08,28,10,53,8.10
2015,08,28,10,54,8.20
2015,08,28,10,55,7.20
2015,08,28,10,56,6.60
2015,08,28,10,57,8.80
2015,08,28,10,58,5.30
2015,08,28,10,59,9.70
2015,08,28,11,00,7.60
2015,08,28,11,01,8.10
2015,08,28,11,02,7.40
2015,08,28,11,03,7.00
2015,08,28,11,04,4.80
2015,08,28,11,05,8.90
2015,08,28,11,06,6.10
2015,08,28,11,07,5.80
2015,08,28,11,08,7.10
2015,08,28,11,09,4.40
2015,08,28,11,10,5.30
2015,08,28,11,11,4.20
2015,08,28,11,12,6.30
2015,08,28,11,13,8.10
2015,08,28,11,14,7.90
2015,08,28,11,15,8.90
2015,08,28,11,16,6.90
2015,08,28,11,17,7.10
2015,08,28,11,18,5.00
2015,08,28,11,19,5.20
2015,08,28,11,20,5.20
2015,08,28,11,21,6.40
2015,08,28,11,22,7.60
2015,08,28,11,23,9.50
2015,08,28,11,24,4.70
2015,08,28,11,25,4.50
2015,08,28,11,26,3.70
2015,08,28,11,27,5.60
2015,08,28,11,28,4.10
2015,08,28,11,29,4.90
2015,08,28,11,30,6.70
2015,08,28,11,31,5.00
2015,08,28,11,32,7.40
2015,08,28,11,33,7.40
2015,08,28,11,34,4.90
2015,08,28,11,35,5.80
2015,08,28,11,36,5.30
2015,08,28,11,37,6.30
2015,08,28,11,38,6.90
2015,08,28,11,39,6.00
2015,08,28,11,40,6.10
2015,08,28,11,41,5.00
2015,08,28,11,42,3.80
2015,08,28,11,43,4.40
2015,08,28,11,44,6.70
2015,08,28,11,45,6.10
2015,08,28,11,46,5.50
2015,08,28,11,47,7.80
2015,08,28,11,48,8.60
2015,08,28,11,49,8.20
2015,08,28,11,50,6.70
2015,08,28,11,51,8.90
2015,08,28,11,52,7.80
2015,08,28,11,53,8.60
2015,08,28,11,54,7.30
2015,08,28,11,55,7.60
2015,08,28,11,56,6.40
2015,08,28,11,57,6.60
2015,08,28,11,58,5.10
2015,08,28,11,59,9.00
2015,08,28,12,00,6.80
2015,08,28,12,01,5.60
2015,08,28,12,02,5.60
2015,08,28,12,03,5.80
2015,08,28,12,04,7.10
2015,08,28,12,05,8.10
2015,08,28,12,06,6.60
2015,08,28,12,07,7.00
2015,08,28,12,08,9.40
2015,08,28,12,09,5.80
2015,08,28,12,10,7.20
2015,08,28,12,11,6.80
2015,08,28,12,12,6.40
2015,08,28,12,13,4.00
2015,08,28,12,14,6.10
2015,08,28,12,15,4.50
2015,08,28,12,16,6.20
2015,08,28,12,17,5.70
2015,08,28,12,18,3.20
2015,08,28,12,19,5.90
2015,08,28,12,20,5.70
2015,08,28,12,21,6.90
2015,08,28,12,22,3.60
2015,08,28,12,23,3.40
2015,08,28,12,24,5.10
2015,08,28,12,25,5.40
2015,08,28,12,26,3.50
2015,08,28,12,27,6.40
2015,08,28,12,28,6.40
2015,08,28,12,29,4.20
2015,08,28,12,30,4.40
2015,08,28,12,31,1.80
2015,08,28,12,32,3.50
2015,08,28,12,33,5.70
2015,08,28,12,34,6.10
2015,08,28,12,35,6.10
2015,08,28,12,36,7.10
2015,08,28,12,37,7.40
2015,08,28,12,38,7.90
2015,08,28,12,39,7.30
2015,08,28,12,40,7.10
2015,08,28,12,41,4.80
2015,08,28,12,42,6.80
2015,08,28,12,43,5.90
2015,08,28,12,44,6.60
2015,08,28,12,45,6.30
2015,08,28,12,46,9.50
2015,08,28,12,47,8.00
2015,08,28,12,48,6.40
2015,08,28,12,49,6.10
2015,08,28,12,50,3.50
2015,08,28,12,51,7.80
2015,08,28,12,52,5.50
2015,08,28,12,53,9.90
2015,08,28,12,54,7.50
2015,08,28,12,55,5.60
2015,08,28,12,56,5.10
2015,08,28,12,57,6.40
2015,08,28,12,58,8.60
2015,08,28,12,59,8.10
2015,08,28,13,00,7.80
2015,08,28,13,01,7.00
2015,08,28,13,02,6.50
2015,08,28,13,03,6.40
2015,08,28,13,04,9.40
2015,08,28,13,05,5.90
2015,08,28,13,06,6.90
2015,08,28,13,07,5.50
2015,08,28,13,08,9.00
2015,08,28,13,09,7.00
2015,08,28,13,10,7.60
2015,08,28,13,11,5.80
2015,08,28,13,12,6.30
2015,08,28,13,13,6.90
2015,08,28,13,14,6.60
2015,08,28,13,15,8.20
2015,08,28,13,16,9.00
2015,08,28,13,17,7.30
2015,08,28,13,18,8.70
2015,08,28,13,19,9.30
2015,08,28,13,20,6.50
2015,08,28,13,21,6.30
2015,08,28,13,22,7.40
2015,08,28,13,23,9.30
2015,08,28,13,24,8.10
2015,08,28,13,25,9.20
2015,08,28,13,26,9.00
2015,08,28,13,27,9.40
2015,08,28,13,28,9.20
2015,08,28,13,29,7.10
2015,08,28,13,30,6.10
2015,08,28,13,31,7.00
2015,08,28,13,32,7.90
2015,08,28,13,33,7.00
2015,08,28,13,34,7.80
2015,08,28,13,35,6.40
2015,08,28,13,36,9.90
2015,08,28,13,37,6.80
2015,08,28,13,38,5.70
2015,08,28,13,39,9.70
2015,08,28,13,40,7.10
2015,08,28,13,41,7.20
2015,08,28,13,42,7.50
2015,08,28,13,43,8.80
2015,08,28,13,44,8.70
2015,08,28,13,45,7.70
2015,08,28,13,46,7.50
2015,08,28,13,47,5.50
2015,08,28,13,48,6.70
2015,08,28,13,49,6.90
2015,08,28,13,50,7.90
2015,08,28,13,51,7.10
2015,08,28,13,52,7.80
2015,08,28,13,53,7.70
2015,08,28,13,54,9.40
2015,08,28,13,55,7.20
2015,08,28,13,56,7.70
2015,08,28,13,57,5.20
2015,08,28,13,58,6.60
2015,08,28,13,59,7.10
2015,08,28,14,00,6.10
2015,08,28,14,01,8.00
2015,08,28,14,02,7.30
2015,08,28,14,03,5.00
2015,08,28,14,04,6.70
2015,08,28,14,05,9.90
2015,08,28,14,06,6.10
2015,08,28,14,07,5.20
2015,08,28,14,08,7.00
2015,08,28,14,09,7.60
2015,08,28,14,10,9.10
2015,08,28,14,11,5.30
2015,08,28,14,12,10.10
2015,08,28,14,13,9.40
2015,08,28,14,14,6.10
2015,08,28,14,15,7.30
2015,08,28,14,16,8.90
2015,08,28,14,17,13.50
2015,08,28,14,18,11.00
2015,08,28,14,19,9.40
2015,08,28,14,20,8.30
2015,08,28,14,21,5.70
2015,08,28,14,22,7.40
2015,08,28,14,23,7.50
2015,08,28,14,24,6.80
2015,08,28,14,25,8.60
2015,08,28,14,26,8.90
2015,08,28,14,27,7.10
2015,08,28,14,28,9.10
2015,08,28,14,29,8.70
2015,08,28,14,30,9.90
2015,08,28,14,31,6.20
2015,08,28,14,32,8.30
2015,08,28,14,33,5.80
2015,08,28,14,34,8.00
2015,08,28,14,35,7.50
2015,08,28,14,36,7.20
2015,08,28,14,37,7.10
2015,08,28,14,38,6.70
2015,08,28,14,39,6.80
2015,08,28,14,40,8.70
2015,08,28,14,41,6.80
2015,08,28,14,42,4.80
2015,08,28,14,43,6.10
2015,08,28,14,44,7.10
2015,08,28,14,45,10.20
2015,08,28,14,46,8.30
2015,08,28,14,47,7.10
2015,08,28,14,48,7.80
2015,08,28,14,49,6.10
2015,08,28,14,50,7.80
2015,08,28,14,51,12.50
2015,08,28,14,52,6.80
2015,08,28,14,53,7.10
2015,08,28,14,54,9.00
2015,08,28,14,55,9.70
2015,08,28,14,56,6.40
2015,08,28,14,57,9.00
2015,08,28,14,58,9.20
2015,08,28,14,59,5.60
2015,08,28,15,00,6.60
2015,08,28,15,01,9.20
2015,08,28,15,02,8.10
2015,08,28,15,03,8.20
2015,08,28,15,04,6.30
2015,08,28,15,05,6.10
2015,08,28,15,06,6.60
2015,08,28,15,07,9.00
2015,08,28,15,08,8.00
2015,08,28,15,09,10.00
2015,08,28,15,10,7.80
2015,08,28,15,11,10.50
2015,08,28,15,12,10.20
2015,08,28,15,13,8.10
2015,08,28,15,14,7.60
2015,08,28,15,15,10.00
2015,08,28,15,16,6.10
2015,08,28,15,17,8.70
2015,08,28,15,18,6.80
2015,08,28,15,19,9.40
2015,08,28,15,20,11.40
2015,08,28,15,21,8.50
2015,08,28,15,22,6.40
2015,08,28,15,23,7.10
2015,08,28,15,24,10.50
2015,08,28,15,25,9.80
2015,08,28,15,26,8.50
2015,08,28,15,27,8.00
2015,08,28,15,28,8.60
2015,08,28,15,29,7.80
2015,08,28,15,30,5.10
2015,08,28,15,31,5.20
2015,08,28,15,32,10.00
2015,08,28,15,33,8.90
2015,08,28,15,34,10.30
2015,08,28,15,35,8.00
2015,08,28,15,36,9.50
2015,08,28,15,37,11.30
2015,08,28,15,38,10.40
2015,08,28,15,39,10.00
2015,08,28,15,40,10.00
2015,08,28,15,41,8.40
2015,08,28,15,42,7.60
2015,08,28,15,43,10.60
2015,08,28,15,44,11.00
2015,08,28,15,45,13.00
2015,08,28,15,46,8.40
2015,08,28,15,47,9.90
2015,08,28,15,48,9.10
2015,08,28,15,49,8.40
2015,08,28,15,50,10.00
2015,08,28,15,51,10.90
2015,08,28,15,52,13.00
2015,08,28,15,53,9.10
2015,08,28,15,54,11.90
2015,08,28,15,55,6.10
2015,08,28,15,56,11.30
2015,08,28,15,57,10.00
2015,08,28,15,58,12.30
2015,08,28,15,59,10.90
2015,08,28,16,00,12.30
2015,08,28,16,01,10.10
2015,08,28,16,02,7.40
2015,08,28,16,03,10.70
2015,08,28,16,04,10.00
2015,08,28,16,05,10.50
2015,08,28,16,06,8.00
2015,08,28,16,07,11.10
2015,08,28,16,08,12.00
2015,08,28,16,09,13.10
2015,08,28,16,10,12.60
2015,08,28,16,11,7.90
2015,08,28,16,12,10.10
2015,08,28,16,13,8.30
2015,08,28,16,14,10.90
2015,08,28,16,15,10.40
2015,08,28,16,16,7.50
2015,08,28,16,17,9.30
2015,08,28,16,18,6.60
2015,08,28,16,19,10.00
2015,08,28,16,20,11.10
2015,08,28,16,21,8.10
2015,08,28,16,22,13.60
2015,08,28,16,23,11.00
2015,08,28,16,24,11.30
2015,08,28,16,25,9.30
2015,08,28,16,26,10.80
2015,08,28,16,27,10.40
2015,08,28,16,28,6.60
2015,08,28,16,29,9.20
2015,08,28,16,30,8.40
2015,08,28,16,31,9.40
2015,08,28,16,32,7.80
2015,08,28,16,33,8.40
2015,08,28,16,34,7.10
2015,08,28,16,35,8.90
2015,08,28,16,36,5.90
2015,08,28,16,37,9.20
2015,08,28,16,38,6.90
2015,08,28,16,39,8.50
2015,08,28,16,40,7.40
2015,08,28,16,41,5.30
2015,08,28,16,42,5.40
2015,08,28,16,43,7.00
2015,08,28,16,44,7.10
2015,08,28,16,45,6.20
2015,08,28,16,46,5.60
2015,08,28,16,47,7.80
2015,08,28,16,48,7.70
2015,08,28,16,49,6.90
2015,08,28,16,50,7.30
2015,08,28,16,51,6.60
2015,08,28,16,52,7.50
2015,08,28,16,53,7.50
2015,08,28,16,54,6.90
2015,08,28,16,55,4.80
2015,08,28,16,56,8.30
2015,08,28,16,57,6.70
2015,08,28,16,58,6.70
2015,08,28,16,59,8.70
2015,08,28,17,00,5.90
2015,08,28,17,01,5.30
2015,08,28,17,02,4.70
2015,08,28,17,03,5.70
2015,08,28,17,04,4.50
2015,08,28,17,05,3.80
2015,08,28,17,06,5.20
2015,08,28,17,07,6.00
2015,08,28,17,08,6.90
2015,08,28,17,09,6.20
2015,08,28,17,10,5.10
2015,08,28,17,11,4.50
2015,08,28,17,12,5.60
2015,08,28,17,13,9.60
2015,08,28,17,14,9.30
2015,08,28,17,15,10.30
2015,08,28,17,16,8.80
2015,08,28,17,17,5.50
2015,08,28,17,18,4.40
2015,08,28,17,19,4.80
2015,08,28,17,20,4.80
2015,08,28,17,21,6.90
2015,08,28,17,22,6.70
2015,08,28,17,23,4.70
2015,08,28,17,24,4.00
2015,08,28,17,25,8.00
2015,08,28,17,26,7.20
2015,08,28,17,27,5.00
2015,08,28,17,28,4.80
2015,08,28,17,29,7.90
2015,08,28,17,30,9.40
2015,08,28,17,31,9.60
2015,08,28,17,32,9.10
2015,08,28,17,33,8.10
2015,08,28,17,34,8.40
2015,08,28,17,35,8.30
2015,08,28,17,36,9.20
2015,08,28,17,37,8.50
2015,08,28,17,38,6.70
2015,08,28,17,39,6.70
2015,08,28,17,40,6.00
2015,08,28,17,41,8.40
2015,08,28,17,42,6.90
2015,08,28,17,43,6.10
2015,08,28,17,44,7.90
2015,08,28,17,45,7.70
2015,08,28,17,46,5.20
2015,08,28,17,47,6.10
2015,08,28,17,48,9.30
2015,08,28,17,49,5.70
2015,08,28,17,50,6.00
2015,08,28,17,51,9.00
2015,08,28,17,52,5.90
2015,08,28,17,53,8.10
2015,08,28,17,54,6.90
2015,08,28,17,55,6.10
2015,08,28,17,56,6.60